Temperature
16 17 17 17 17 16 16 16 16 16 16 16 16 16 16 16 16 16 16 16 15 15 15 15 15 16 16 16 16 15 15 15 15 15 15 15 15 15 15 15 15 15 14
17 17 17 17 16 16 16 16 16 16 16 16 16 16 16 15 15 15 15 15 15 15 15 15 15 15 15 15 15 15 15 15 15 15 15 14 14 14 14 14 14 14 14
17 17 17 16 16 16 16 16 16 16 16 16 16 16 15 15 15 15 15 15 15 15 15 15 15 15 15 15 15 15 15 14 14 14 14 14 14 14 14 14 14 14 14
16 16 16 16 16 16 16 16 16 16 15 15 15 15 15 15 15 15 15 15 15 15 15 15 15 15 15 15 15 14 14 14 14 14 14 14 14 14 14 14 14 14 14
15 16 16 16 16 16 15 15 15 15 15 15 15 15 15 15 15 15 15 15 15 15 15 15 15 15 15 14 14 14 14 14 13 13 13 13 14 14 14 14 14 14 14
15 15 15 15 15 15 15 15 15 15 15 15 15 15 15 15 15 15 15 15 15 15 15 14 14 14 14 14 14 14 14 13 13 13 13 13 13 13 13 13 13 13 13
15 15 15 15 15 15 15 15 15 15 15 15 15 15 15 15 15 14 14 14 14 14 14 14 14 14 14 14 14 13 13 13 13 13 13 13 13 13 13 13 13 13 13
15 14 14 14 15 15 15 14 14 14 14 14 14 14 14 14 14 14 14 14 14 14 14 14 14 14 14 14 13 13 13 13 13 13 13 13 13 13 13 13 12 12 12
14 14 14 14 14 14 14 14 14 14 14 14 14 14 14 14 14 14 14 14 14 14 14 14 14 14 13 13 13 13 13 12 12 12 12 12 12 12 12 12 12 12 12
14 14 14 14 14 14 14 14 14 14 14 14 14 14 14 14 14 13 13 13 13 13 13 13 13 13 13 13 13 12 12 12 12 12 12 12 12 12 12 12 12 12 11
13 13 13 13 13 13 13 13 13 13 14 14 14 14 14 13 13 13 13 13 13 13 13 13 13 13 13 13 12 12 12 12 12 12 12 12 12 12 12 12 12 11 11
13 13 13 13 13 13 13 13 13 13 13 13 13 13 13 13 13 13 13 13 13 13 13 13 13 13 12 12 12 12 12 12 12 12 12 12 11 11 11 11 11 11 11
12 12 12 13 13 13 13 13 13 13 13 13 13 13 12 12 12 12 12 12 12 12 12 12 12 12 12 12 12 11 11 11 11 11 11 11 11 11 11 11 11 11 11
12 12 12 12 12 12 12 12 12 12 12 12 12 12 12 12 12 12 12 12 12 12 12 12 12 12 11 11 11 11 11 11 11 11 11 11 11 11 11 11 11 11 10
11 12 12 12 12 12 12 12 12 12 12 12 12 12 12 12 12 12 12 12 12 12 11 11 11 11 11 11 11 11 11 11 11 11 11 11 11 10 10 10 10 10 10
11 11 11 11 12 12 12 12 12 12 12 12 12 12 12 12 12 12 12 11 11 11 11 11 11 11 11 11 11 11 10 10 10 10 10 10 10 10 10 10 10 10 10
10 10 11 11 11 11 11 11 11 11 11 11 11 11 11 11 11 11 11 11 11 11 11 11 11 11 10 10 10 10 10 10 10 10 10 10 10 10 10 10 10 10 10
9 10 10 10 11 11 11 11 11 11 11 11 11 11 11 11 11 11 11 11 11 11 11 11 10 10 10 10 10 10 10 10 10 10 10 10 10 10 10 10 10 10 9
9 9 9 10 10 11 11 11 11 10 11 11 11 11 11 11 11 11 11 11 11 11 11 10 10 10 10 10 10 10 9 9 9 9 9 9 9 9 9 9 9 9 9
9 9 9 9 10 10 10 10 10 10 10 10 10 11 11 11 10 11 11 11 10 10 10 10 10 9 9 9 9 9 9 9 9 9 9 9 9 9 9 9 9 9 9
8 8 8 9 9 9 9 10 9 10 10 10 10 10 10 10 10 10 10 10 10 10 10 10 9 9 9 9 9 9 9 9 9 9 9 9 9 9 9 9 9 9 8
7 7 8 8 8 8 9 9 9 9 9 9 9 9 9 10 10 10 10 10 10 10 9 9 9 9 9 9 9 8 8 8 8 8 8 8 8 8 8 8 8 8 8
6 7 7 7 7 8 8 8 8 8 9 9 9 9 9 9 9 9 9 10 9 9 9 9 9 9 9 8 8 8 8 8 8 8 8 8 8 8 8 8 8 8 8
5 6 6 7 7 7 7 8 8 8 8 8 8 8 8 9 9 9 9 9 9 9 9 9 9 8 8 8 8 8 8 8 8 8 8 8 8 8 8 8 8 8 8
5 5 5 6 6 6 7 7 7 7 7 7 8 8 8 8 8 8 8 8 8 9 8 8 8 8 8 8 8 8 8 8 8 8 7 7 7 7 7 7 7 7 7
4 4 5 5 5 6 6 6 6 7 7 7 7 7 7 7 8 8 8 8 8 8 8 8 8 8 8 8 7 7 7 7 7 7 7 7 7 7 7 7 7 7 7
Wind_Speed
9 14 16 15 14 14 14 13 13 12 12 12 13 13 13 13 14 14 14 14 14 14 15 16 16 16 17 17 18 18 18 18 19 19 20 19 19 19 19 19 19 18 20
12 16 17 15 15 14 13 13 13 13 13 13 13 13 13 13 13 14 14 14 14 14 15 16 16 16 16 17 17 17 17 16 17 18 19 19 19 20 20 20 19 18 20
14 15 16 15 15 14 13 13 13 12 12 13 13 13 13 13 13 13 13 14 14 15 15 16 16 16 16 16 16 15 14 13 13 14 16 16 17 18 19 19 19 19 19
13 14 15 16 15 14 14 13 13 12 12 13 13 13 13 13 13 13 13 13 14 14 15 15 15 16 15 15 15 14 12 11 11 12 14 15 15 17 18 18 18 18 19
12 13 15 16 15 14 13 13 13 12 12 12 13 13 13 13 13 13 13 13 14 15 15 15 15 15 15 14 13 12 11 10 12 15 16 16 15 16 17 17 17 18 18
11 13 15 15 14 14 13 13 13 13 12 12 12 12 12 12 13 13 13 13 13 14 14 14 14 14 14 13 12 10 10 10 12 14 16 15 14 16 16 16 16 17 17
10 12 15 14 14 14 14 13 13 13 13 12 12 12 12 13 13 13 13 13 13 13 14 14 14 14 13 12 10 9 9 10 12 15 15 15 14 15 15 16 16 16 16
9 11 14 14 14 14 14 13 13 13 13 12 12 12 12 12 12 13 13 13 13 13 13 13 13 13 12 11 9 9 9 10 12 14 14 14 14 15 15 15 15 15 15
9 10 10 11 12 13 13 13 13 13 13 12 12 12 12 12 12 12 13 13 13 13 13 13 13 12 11 10 9 8 9 11 11 12 13 12 13 13 13 13 13 14 14
7 8 8 9 10 10 11 13 13 13 13 13 12 13 12 12 11 12 12 12 13 13 13 13 13 12 11 9 7 6 7 9 12 13 12 11 12 12 12 12 12 13 13
6 6 7 7 8 9 10 11 13 13 13 13 12 12 12 11 11 10 11 13 13 12 12 12 12 11 10 8 6 5 6 8 12 12 11 11 12 11 11 12 12 12 12
5 5 5 6 6 7 8 9 10 10 11 10 10 10 9 9 10 10 12 13 12 11 11 11 11 9 8 6 4 4 5 9 11 11 11 11 11 11 11 11 11 12 12
4 5 4 5 6 5 5 7 6 7 7 8 9 9 9 9 9 10 10 10 10 9 8 8 8 7 6 6 4 4 6 9 10 10 10 11 11 11 11 11 11 11 12
4 4 4 4 5 5 5 5 6 5 5 5 6 8 7 6 6 7 7 8 8 7 7 6 5 5 6 6 6 6 8 9 10 10 10 11 10 10 10 10 10 10 11
4 4 4 4 4 4 4 4 4 4 5 5 5 6 6 5 4 5 6 6 6 7 6 4 4 5 5 6 6 7 8 9 10 10 9 10 9 9 8 8 8 9 10
3 3 3 4 4 5 4 3 4 5 5 6 5 5 6 6 5 5 5 5 5 6 6 6 5 4 4 5 6 7 7 8 10 10 9 9 9 8 7 7 7 8 9
3 4 3 4 4 4 4 4 4 5 5 5 5 6 6 6 6 5 5 4 5 6 6 6 6 5 4 5 5 6 6 6 8 9 9 8 8 8 7 6 6 7 8
3 4 3 3 4 4 3 3 4 5 5 5 6 6 6 5 6 6 4 4 6 6 5 4 4 3 3 3 3 3 5 5 6 7 8 8 8 7 6 6 7 7 7
3 4 4 4 4 4 4 4 4 4 5 5 6 5 5 5 5 5 4 5 6 5 4 3 3 3 4 4 3 3 3 4 4 5 6 7 7 7 7 7 8 7 6
3 4 4 4 4 4 4 4 4 3 3 4 5 4 5 5 5 5 5 5 5 3 3 4 4 3 4 4 4 4 3 3 4 4 4 6 6 6 6 7 7 6 5
4 4 4 4 4 4 3 3 2 2 2 2 3 4 5 5 5 5 4 4 4 3 3 4 4 4 3 3 3 2 2 2 2 2 3 4 4 5 5 6 6 5 4
3 3 3 4 3 3 2 2 2 2 1 2 2 3 4 4 4 4 4 3 3 3 3 4 4 3 2 2 3 3 1 1 1 1 1 2 3 4 4 4 4 4 4
3 3 2 2 3 3 3 3 3 3 2 1 2 2 2 3 3 3 3 3 3 3 3 3 4 4 3 2 1 2 3 3 1 0 1 1 2 2 2 3 3 3 3
2 3 3 3 3 3 3 2 3 2 2 1 1 1 2 3 3 3 3 3 2 2 3 3 3 3 4 3 1 0 1 2 3 1 1 1 2 2 2 2 3 3 3
3 3 3 3 3 3 3 3 2 2 2 2 2 2 2 2 2 2 2 2 2 2 2 2 2 3 3 4 3 2 1 0 1 2 2 2 1 2 2 2 3 3 4
4 3 3 3 3 3 3 3 2 2 2 2 2 2 1 1 1 1 2 2 2 1 2 2 2 3 3 3 3 2 3 2 2 2 2 3 3 2 2 2 3 4 5
Wind_Direction
126 134 142 137 133 133 133 132 130 129 126 126 122 119 114 110 106 104 103 102 102 101 99 96 93 90 87 85 84 83 82 81 82 81 77 73 71 70 71 69 69 67 69
129 135 141 138 135 133 133 133 131 129 127 129 126 122 119 115 112 108 105 104 103 103 101 99 96 93 90 88 87 87 87 87 88 86 80 74 72 72 71 70 70 69 68
126 135 142 138 136 135 133 130 128 129 130 130 128 125 122 118 115 110 107 105 103 102 101 99 97 94 91 90 91 91 90 89 90 88 84 81 76 75 75 73 72 70 68
125 135 142 139 138 137 136 134 131 129 129 130 128 126 124 121 117 114 111 106 104 103 101 99 98 95 94 93 92 90 87 84 81 80 82 80 78 76 76 75 73 72 70
122 133 139 140 139 139 137 135 132 131 129 128 129 127 125 123 120 116 112 107 104 104 102 101 99 97 95 94 92 88 82 77 75 80 78 78 77 78 77 76 74 73 72
123 130 136 140 140 138 137 136 135 133 130 128 126 128 126 125 122 117 113 110 108 107 106 104 101 99 97 94 91 86 77 68 72 80 80 79 78 80 79 77 75 74 74
120 123 136 138 137 137 138 137 137 136 133 130 127 124 126 124 121 116 114 114 114 113 110 108 105 103 100 95 89 79 70 67 76 79 79 81 82 83 81 79 77 76 75
114 118 133 134 133 136 137 135 134 132 130 129 126 123 122 124 123 119 118 117 117 115 114 112 110 106 102 98 89 73 65 69 80 85 83 82 84 84 82 81 80 78 76
108 116 122 129 131 131 133 133 131 129 127 127 125 122 122 121 123 124 122 121 120 119 115 113 112 108 105 100 92 74 68 72 75 86 87 85 86 85 85 83 81 81 77
108 114 121 127 129 128 130 133 131 129 128 127 125 124 123 123 123 124 124 123 121 121 118 115 113 111 108 104 95 82 73 75 78 79 85 88 90 89 87 86 84 82 80
108 114 120 122 125 128 132 136 133 132 132 130 130 131 132 130 127 123 125 123 122 122 122 121 118 117 114 109 102 90 84 81 82 81 84 90 93 91 90 88 86 84 83
116 115 116 118 118 126 133 135 138 138 141 140 141 143 142 134 131 128 127 128 127 127 128 131 129 128 124 120 114 104 87 91 87 86 89 94 94 92 91 90 89 88 85
117 109 107 114 116 115 117 128 130 133 141 142 146 147 139 135 132 127 128 130 131 135 134 139 137 140 130 122 113 97 82 91 91 89 92 95 95 94 92 90 89 88 86
116 106 100 104 109 109 111 121 124 123 130 135 144 145 140 133 131 133 134 140 143 143 138 143 141 140 129 121 116 98 85 91 93 92 92 96 96 96 94 94 93 90 87
110 110 111 103 109 112 108 115 116 119 124 121 120 123 129 131 133 133 133 135 139 140 140 140 135 125 119 119 109 97 93 98 103 99 100 100 99 99 99 98 99 97 94
105 105 109 107 102 108 111 115 110 115 116 120 121 118 118 122 126 129 125 126 125 134 141 136 121 110 98 95 93 94 91 96 105 108 109 105 100 98 103 103 100 103 101
107 99 96 102 94 101 112 114 107 111 116 110 110 114 110 116 119 120 119 118 128 131 131 123 112 104 96 92 87 88 86 93 103 110 114 115 109 99 95 105 109 109 107
97 99 95 90 83 87 93 101 101 109 108 101 101 105 102 108 114 114 115 116 126 123 116 112 115 110 99 95 88 78 78 81 93 108 113 113 112 109 103 107 111 111 110
81 90 91 88 80 77 79 81 87 93 102 108 103 102 105 103 112 116 115 122 126 119 114 114 112 123 117 103 97 81 71 69 69 90 106 109 113 118 119 122 117 112 110
72 78 84 84 81 75 74 79 77 79 82 94 101 103 107 114 119 114 115 122 124 116 119 118 114 107 120 122 106 86 74 73 67 68 93 109 119 124 127 129 125 121 118
64 71 77 83 83 85 93 103 110 112 96 90 88 109 112 116 118 115 115 123 125 126 135 134 128 121 124 124 109 93 52 58 80 75 85 102 114 126 127 128 131 135 135
65 57 66 75 81 89 85 106 118 115 105 94 77 90 103 105 111 120 113 124 128 135 135 136 130 130 137 156 143 135 135 9 354 76 87 111 121 128 128 139 140 138 142
70 64 58 66 74 76 67 94 102 96 91 80 87 99 82 102 105 114 119 117 128 139 157 155 148 146 161 194 171 154 157 189 179 217 203 152 135 125 141 149 156 155 152
67 62 60 61 64 68 72 99 118 125 135 140 134 117 90 110 116 109 118 125 133 138 159 174 161 157 158 178 214 222 152 138 146 168 228 194 166 171 175 175 171 173 179
69 63 66 67 62 62 65 74 103 112 108 112 119 128 123 96 110 122 126 130 134 137 151 162 163 171 169 173 175 183 186 85 138 153 189 203 204 203 184 177 177 186 190
70 62 64 71 66 57 59 71 71 100 110 113 135 143 143 131 104 112 125 119 132 134 149 168 174 182 184 174 172 170 170 170 183 173 180 191 203 211 193 181 188 199 198
Height
1512 1514 1516 1519 1521 1524 1526 1528 1530 1532 1534 1535 1537 1539 1540 1542 1543 1544 1545 1546 1547 1548 1549 1550 1551 1552 1552 1553 1553 1554 1554 1555 1556 1556 1556 1557 1557 1558 1558 1558 1558 1558 1559
1511 1514 1516 1519 1522 1524 1526 1529 1531 1533 1535 1536 1538 1540 1542 1543 1544 1546 1547 1548 1549 1550 1551 1552 1553 1553 1554 1555 1555 1556 1557 1557 1558 1558 1559 1559 1560 1560 1560 1560 1560 1561 1561
1511 1514 1517 1519 1522 1524 1527 1529 1532 1534 1536 1537 1539 1541 1543 1544 1546 1547 1548 1549 1550 1551 1552 1553 1554 1555 1556 1557 1557 1558 1559 1559 1560 1560 1561 1561 1562 1562 1562 1562 1562 1562 1562
1511 1514 1517 1520 1522 1525 1527 1530 1532 1534 1536 1538 1540 1542 1543 1545 1547 1548 1550 1551 1552 1553 1554 1555 1556 1557 1558 1559 1559 1560 1561 1562 1562 1562 1563 1563 1563 1564 1564 1564 1564 1564 1564
1512 1514 1517 1520 1523 1525 1528 1530 1532 1535 1537 1539 1540 1542 1544 1546 1547 1549 1550 1552 1553 1554 1555 1556 1557 1558 1559 1560 1561 1562 1563 1564 1564 1564 1564 1565 1565 1565 1565 1566 1566 1566 1566
1513 1515 1517 1520 1523 1525 1528 1530 1533 1535 1537 1539 1541 1543 1545 1546 1548 1550 1551 1553 1554 1555 1556 1557 1559 1560 1561 1562 1563 1564 1565 1565 1566 1566 1566 1566 1567 1567 1567 1567 1567 1567 1567
1513 1515 1518 1520 1523 1526 1528 1531 1533 1535 1537 1539 1541 1543 1545 1547 1548 1550 1552 1553 1555 1556 1557 1558 1560 1561 1562 1563 1564 1565 1566 1567 1567 1567 1568 1568 1568 1569 1569 1569 1569 1569 1569
1513 1515 1518 1520 1523 1526 1528 1530 1533 1535 1538 1540 1542 1543 1545 1547 1549 1550 1552 1554 1555 1557 1558 1559 1560 1561 1563 1564 1566 1567 1567 1568 1568 1569 1569 1569 1570 1570 1570 1570 1570 1570 1570
1513 1515 1517 1520 1523 1525 1528 1530 1533 1535 1537 1539 1541 1543 1545 1547 1549 1550 1552 1554 1556 1557 1559 1560 1561 1562 1564 1565 1567 1568 1569 1569 1569 1570 1570 1571 1571 1571 1571 1571 1571 1571 1571
1513 1515 1517 1519 1522 1525 1527 1530 1532 1535 1537 1539 1541 1543 1545 1547 1549 1550 1552 1554 1556 1557 1559 1560 1561 1563 1564 1566 1567 1569 1570 1570 1570 1571 1571 1571 1572 1572 1572 1572 1572 1572 1572
1513 1515 1517 1519 1521 1524 1527 1529 1532 1534 1537 1539 1541 1543 1545 1546 1548 1550 1552 1554 1556 1557 1559 1560 1562 1563 1565 1566 1568 1569 1570 1570 1571 1571 1572 1572 1572 1573 1573 1573 1573 1573 1573
1512 1514 1516 1518 1521 1523 1526 1529 1531 1534 1536 1538 1540 1542 1544 1546 1548 1549 1551 1553 1555 1557 1558 1560 1562 1563 1565 1566 1568 1569 1570 1571 1571 1571 1572 1573 1573 1573 1574 1574 1574 1574 1574
1511 1513 1515 1517 1520 1522 1525 1528 1530 1533 1535 1538 1540 1542 1543 1545 1547 1549 1551 1553 1554 1556 1558 1560 1561 1563 1564 1566 1568 1569 1570 1570 1571 1571 1572 1573 1574 1574 1574 1574 1575 1575 1575
1510 1512 1514 1517 1519 1521 1524 1527 1529 1532 1534 1536 1539 1541 1543 1544 1546 1548 1550 1552 1554 1556 1557 1559 1561 1563 1564 1566 1567 1568 1569 1570 1571 1571 1572 1573 1574 1574 1574 1575 1575 1576 1576
1509 1511 1513 1515 1517 1520 1523 1525 1528 1531 1533 1535 1537 1540 1542 1543 1545 1547 1549 1551 1553 1555 1557 1559 1560 1562 1564 1565 1566 1568 1569 1570 1570 1571 1572 1573 1574 1574 1575 1575 1576 1576 1576
1507 1509 1512 1514 1516 1519 1521 1524 1527 1529 1532 1534 1536 1538 1540 1542 1544 1546 1548 1550 1552 1554 1556 1558 1559 1561 1563 1564 1565 1567 1568 1569 1570 1571 1572 1572 1573 1574 1575 1575 1576 1576 1577
1506 1508 1510 1512 1515 1517 1520 1523 1525 1527 1530 1532 1534 1537 1539 1541 1543 1545 1546 1548 1550 1552 1554 1556 1558 1560 1562 1563 1564 1566 1567 1568 1569 1570 1571 1572 1572 1573 1574 1575 1575 1576 1576
1504 1506 1508 1510 1513 1515 1518 1521 1523 1525 1528 1530 1532 1535 1537 1539 1541 1543 1545 1547 1549 1550 1553 1555 1556 1558 1560 1561 1563 1565 1566 1567 1569 1569 1570 1571 1572 1572 1573 1574 1574 1575 1576
1503 1505 1507 1509 1511 1514 1517 1519 1522 1524 1526 1528 1531 1533 1535 1538 1540 1541 1543 1545 1547 1549 1551 1553 1555 1557 1558 1560 1562 1563 1565 1566 1567 1568 1569 1570 1570 1571 1572 1573 1573 1574 1575
1501 1503 1505 1507 1510 1512 1515 1517 1520 1522 1524 1526 1529 1531 1533 1535 1538 1539 1541 1543 1545 1547 1549 1551 1553 1555 1556 1558 1560 1561 1563 1564 1566 1567 1568 1568 1569 1570 1571 1572 1572 1573 1574
1500 1502 1504 1505 1508 1510 1513 1515 1517 1520 1522 1525 1527 1529 1531 1533 1535 1537 1539 1541 1543 1545 1547 1549 1551 1553 1554 1556 1558 1560 1561 1563 1564 1565 1566 1567 1568 1569 1569 1570 1571 1572 1572
1498 1500 1502 1504 1507 1509 1511 1514 1516 1518 1521 1523 1525 1527 1529 1531 1533 1535 1537 1539 1541 1543 1545 1547 1548 1550 1552 1554 1556 1557 1559 1562 1562 1563 1564 1565 1566 1567 1568 1568 1569 1570 1571
1497 1499 1501 1503 1505 1507 1509 1512 1514 1516 1518 1521 1523 1524 1526 1528 1530 1532 1534 1536 1538 1540 1542 1544 1546 1548 1549 1552 1554 1556 1557 1558 1559 1561 1562 1563 1564 1565 1566 1567 1567 1568 1569
1497 1498 1500 1501 1504 1505 1507 1509 1511 1513 1515 1518 1520 1522 1524 1526 1528 1530 1532 1534 1536 1538 1540 1542 1544 1546 1548 1549 1551 1553 1555 1555 1557 1557 1559 1560 1561 1562 1564 1564 1565 1566 1567
1496 1497 1499 1500 1502 1504 1505 1507 1509 1511 1513 1516 1518 1520 1522 1523 1525 1527 1529 1531 1533 1535 1537 1539 1541 1543 1545 1546 1548 1550 1552 1553 1554 1555 1556 1557 1559 1560 1561 1562 1563 1563 1564
1496 1497 1498 1499 1501 1502 1504 1505 1507 1509 1511 1513 1515 1517 1519 1520 1522 1524 1526 1527 1529 1532 1534 1536 1538 1540 1542 1543 1545 1547 1548 1550 1551 1552 1553 1554 1555 1557 1558 1558 1559 1560 1561